Simultaneous Nadir Overpasses (SNOs) Predictions

Prediction of SNOs between NOAA-15 and METOP-C Satellite Orbit:

Table of predicted SNOs for the next 14.0 days since TLE Epoch: 3/24/2022
Index Date (NOAA-15) Time (NOAA-15) Lat,Lon (NOAA-15) SZA (NOAA-15 ) Date (METOP-C) Time (METOP-C) Lat,Lon (METOP-C) SZA (METOP-C ) Distance(km) Time Diff (sec)
1 04/06/2022 13:23:25 -81.05,-162.74 103.68 04/06/2022 13:22:16 -81.05,-162.74 103.70 0.22 69
2 04/06/2022 14:14:00 81.06, 4.39 76.30 04/06/2022 14:12:57 81.05, 4.53 76.28 2.89 63
3 04/06/2022 15:04:27 -81.05, 171.99 103.70 04/06/2022 15:03:37 -81.06, 172.14 103.70 2.71 50
4 04/06/2022 15:55:01 81.05, -20.52 76.30 04/06/2022 15:54:18 81.06, -20.59 76.28 1.66 43
5 04/06/2022 16:45:29 -81.05, 146.71 103.73 04/06/2022 16:44:59 -81.05, 146.64 103.75 1.12 30
6 04/06/2022 17:36:04 81.06, -46.17 76.25 04/06/2022 17:35:40 81.05, -46.08 76.24 2.12 24
7 04/06/2022 18:26:31 -81.05, 121.43 103.76 04/06/2022 18:26:20 -81.06, 121.52 103.75 1.71 11
8 04/06/2022 19:17:05 81.05, -71.08 76.24 04/06/2022 19:17:01 81.06, -71.21 76.24 2.47 4
9 04/06/2022 20:07:33 -81.06, 96.15 103.78 04/06/2022 20:07:42 -81.05, 96.03 103.79 2.19 9
10 04/06/2022 20:58:08 81.07, -96.73 76.19 04/06/2022 20:58:23 81.05, -96.70 76.19 1.55 15
11 04/06/2022 21:48:35 -81.06, 70.87 103.81 04/06/2022 21:49:03 -81.06, 70.90 103.79 0.93 28
12 04/06/2022 22:39:10 81.07,-122.01 76.17 04/06/2022 22:39:44 81.06,-121.82 76.19 3.33 34
13 04/06/2022 23:29:37 -81.06, 45.60 103.84 04/06/2022 23:30:25 -81.06, 45.41 103.84 3.27 48
14 04/07/2022 00:20:12 81.07,-147.29 76.14 04/07/2022 00:21:06 81.06,-147.32 76.15 1.45 54
15 04/07/2022 01:10:39 -81.06, 20.32 103.86 04/07/2022 01:11:46 -81.07, 20.28 103.84 1.08 67



Historial Predications of SNOs between NOAA-15 and METOP-C
